"Pseudo-MPEC" for P10HGt1

Created 2018 Jun 20 19:18:03 UT using Find_Orb

Click here for an explanation of pseudo-MPECs

 
 Astrometry: 
     P10HGt1  C2018 06 06FAAstrometryii(8Eb(eRbP1=*i-AO76DM^l9Fw)lL5j(ERd0^L;F51
     P10HGt1  C2018 06 06oiy^PA4g12oI%.ok;t=Qta3s9w*xIyGmx,Cste*,4Sevgh;_I5G\F51
     P10HGt1  C2018 06 06/:Ym8\l`OjFMd@lHVl23D*O*S+i'EN89@RheRo)La+RA;xxNfBX;F51
     P10HGt1 KC2018 06 07f31/o12C#KdUm)-c2Y$qe3dxaPtsE!_2fo'Q[KT`icSrJp^]O/IO291
     P10HGt1 KC2018 06 07Bg']q!1pVp(C?0NT5):$FHPqhTGwWvtD#1oYBe5mHXf2aAGj5%j]291
     P10HGt1 KC2018 06 07/aVQ#(MTr14Aj0-#U8jAy1hCFG4^VO:aEqisKFk]42'DsaH(8IS#474
     P10HGt1 KC2018 06 07kQ#8?aHnU/:My3REXiYDqWX%2qJ@NoqR.6mV*#@x*s1\iLQhw.,/474
     P10HGt1 KC2018 06 07h`B_db4Z3@h#gx-jr,tkq1/;]:)ZIii7OeP:'tn8qn%JgeyX\0BQ474
     P10HGt1  C2018 06 08.28393 16 54 23.64 -17 11 38.8          20.7 GUNEOCPI52
     P10HGt1  C2018 06 08.28724 16 54 23.29 -17 11 33.1          22.0 GUNEOCPI52
     P10HGt1  C2018 06 08.29055 16 54 23.02 -17 11 27.3          21.9 GUNEOCPI52
     P10HGt1  C2018 06 09G\Z[_I$PyD'mKEg@^]kQpB5AwL+?#RU^g;alk`6rS;rt50W'(/QJV06
     P10HGt1  C2018 06 09'Al$mQwJ^SbKHJq90redacted;af#8llHJMP3%:FsmxJq\WZa%*YV06
     P10HGt1  C2018 06 09sn@_fwwYDy]q)pP)dP*7w\bor?OYyYlr'gWnd.Mba0ZjZdsx;W68V06
     P10HGt1  C2018 06 109Ra1K6EJI7BQ$SyC;L+6?lJ*@yw87kDSVpi!@mm=xqpw:fIh9?[cV06
     P10HGt1  C2018 06 10IU?RXnwVGTLj/G]d[N4XB[BCtbX7e3Wh?i\=y]KLMZM177Fe%%-ZV06
     P10HGt1  C2018 06 10:*#il5Z1HkSg4i*4L/`Tj3e[$eF]D-=_7tN]/bI1TyhF]Lm7OEr-V06
     P10HGt1  C2018 06 101rkUYbnq7v._W294e[ZH^`og,*fX7Q*(-dEU5\RC\7!n*5YeI\#/V06
     P10HGt1  C2018 06 11Q$P8b=JyHU\Us'e.==+y.,Hlu[WDq5.#m^;UUeT$tj3GKxUhoaB#V06
     P10HGt1  C2018 06 11GjoC%'AQpOTchoC4L!c=i0hg@W7[Sn(w%EGSov-XdVvbEc.?Rbt8V06
     P10HGt1  C2018 06 11s1sLYIw[%v(3k%@ICQy+vI*uU]);0nh\Nj_KeH.x9gr=1#pyrs]nV06
     P10HGt1  C2018 06 11O`+XUMCR!hlLnWN/hD[+U_!%^NyBBN\'see`7w34*hvop-CM1qwpV06
     P10HGt1  C2018 06 12.30530 16 48 13.03 -15 10 21.2                UNEOCPI52
     P10HGt1  C2018 06 12.30944 16 48 12.55 -15 10 13.0          20.2 GUNEOCPI52
     P10HGt1  C2018 06 12.31358 16 48 12.22 -15 10 06.6          21.6 GUNEOCPI52
     P10HGt1 KC2018 06 13\L+A^=vfy#MjU:$_][5RQBuX^a)51cL]IG]-dYt=7!-F;e_xFt*R291
     P10HGt1 KC2018 06 13dTAnCRWo6MhZ-bwxc^DXJ)1p#;sug'[$Ilt_Mj2;KsWHqta;R1x=291
     P10HGt1 KC2018 06 13[U38N.%/%:4N,b33,yNWM_ZDYA:f,l)AHYv%^`*RN29jyLvxUTK:291
     P10HGt1  C2018 06 15hJtc`o0CjX`J/?bI#;w5Tg4Z=f5K8P9J40KDSpWmt@f\iiQf$_-8F51
     P10HGt1  C2018 06 15@$%UPq+ig/F!sKy'uVtov;,?*]_cwlU=q4L!+2DLAj';p'Bk7p;hF51
     P10HGt1  C2018 06 15eG-p^m3[9hRd#%ebk0ifTp'$w#p5N1Wm2d=p1PRK?*ivcU^T?MAsF51
     P10HGt1 KC2018 06 19xxuZHdb3AUE`s;q#GvB,frou1$:8yg6U?25APQTLaSf4I77p44T,291
     P10HGt1 KC2018 06 19LO=PCVOdl**XtKc%Z5f3U6l8-Zc425=P?:`n%RS/e'4N,n=M\r'r291
     P10HGt1 KC2018 06 19d?YEyw322QRkJ.-Ys4H!uHRjO%UI8TH5A4HLPTrRTBaV4P$NEOCP291

Station data:
(291) LPL/Spacewatch II  (N31.961669 W111.599905)  US/Arizona.  Observers J.
   V. Scotti, R. S. McMillan. 1.8-m f/2.7 reflector + CCD.
(474) Mount John Observatory, Lake Tekapo  (S43.987388 E170.464960)  New
   Zealand.  Observers A. C. Gilmore, P. M. Kilmartin. Measurer P. M.
   Kilmartin. 1.0-m f/7.7 reflector + CCD.
(F51) Pan-STARRS 1, Haleakala  (N20.707235 W156.255910)  US/Hawaii.
   Observers N. Primak, A. Schultz, S. Watters, J. Thiel, T. Goggia. Measurer
   PS1 Science Consortium. 1.8-m Ritchey-Chrétien + CCD.
(I52) Steward Observatory, Mt. Lemmon Station  (N32.442547 W110.788920)
   US/Arizona.  Observers B. M. Africano, E. J. Christensen, D. C. Fuls, A.
   R. Gibbs, A. D. Grauer, J. A. Johnson, R. A. Kowalski, S. M. Larson, G. J.
   Leonard, R. L. Seaman, F. C. Shelly. 1.0-m reflector + CCD.
(V06) Catalina Sky Survey-Kuiper  (N32.416847 W110.732550)  US/Arizona.
   Observers B. M. Africano, E. J. Christensen, D. C. Fuls, A. R. Gibbs, A.
   D. Grauer, J. A. Johnson, R. A. Kowalski, S. M. Larson, G. J. Leonard, R.
   L. Seaman, F. C. Shelly. 1.55-m reflector + CCD.

Orbital elements:  P10HGt1
   Perihelion 2018 Nov 25.994864 +/- 1.34 TT = 23:52:36 (JD 2458448.494864)
Epoch 2018 Jun 19.0 TT = JDT 2458288.5                        AutoNEOCP
M 313.25917 +/- 0.7                 (J2000 ecliptic)
n   0.29213952 +/- 0.00249          Peri.   71.36405 +/- 0.8
a   2.24944738 +/- 0.0128           Node   252.67182 +/- 0.018
e   0.1737889 +/- 0.00113           Incl.   41.50851 +/- 0.28
P   3.37                   H 19.7   G  0.15   U  8.7  
q 1.85851828 +/- 0.00826    Q 2.64037648 +/- 0.018
From 34 observations 2018 June 6-19; mean residual 0".32
Residuals in arcseconds: 
180606 F51  .01-  .12+    180609 V06  .14+  .39+    180612 I52  .30-  .53-    
180606 F51  .07+  .10-    180609 V06  .08+  .64-    180613 291  .13-  .20-    
180606 F51  .19-  .02+    180610 V06  .35-  .15+    180613 291  .07+  .23+    
180607 291  .17-  .32+    180610 V06  .03-  .18+    180613 291  .31-  .03-    
180607 291  .18-  .16-    180610 V06  .29+  .08-    180615 F51  .14+  .31-    
180607 474  .08+  .17-    180610 V06  .17+  .77+    180615 F51  .20+  .22-    
180607 474  .34-  .24+    180611 V06  .30+  .45+    180615 F51  .16+  .23-    
180607 474  .44+  .66-    180611 V06  .02+  .01+    180619 291  .34-  .11+    
180608 I52  .31+  .38+    180611 V06  .11-  .17+    180619 291  .10+  .55+    
180608 I52  .13-  .09+    180611 V06  .04+  .47-    180619 291  .41+  .25-    
180608 I52  .58+  .11-    180612 I52  .20+  .19-    
180609 V06  .25+  .04+    180612 I52  1.1-  .54+    

Ephemerides (geocentric):
Date (UTC) HH   RA              Dec         delta   r     elong  mag " sig PA
---- -- -- --  -------------   -----------  ------ ------ -----  --- ---- ---
2018 06 20 19  16 36 09.775   -11 01 54.77  1.0457 2.0214 157.2 22.0  .40  95
2018 06 20 20  16 36 06.497   -11 00 44.38  1.0458 2.0213 157.2 22.0  .41  95
2018 06 20 21  16 36 03.222   -10 59 34.03  1.0459 2.0212 157.1 22.0  .42  96
2018 06 20 22  16 35 59.951   -10 58 23.72  1.0461 2.0211 157.1 22.0  .43  96
2018 06 20 23  16 35 56.682   -10 57 13.44  1.0462 2.0211 157.0 22.0  .44  97
2018 06 21 00  16 35 53.417   -10 56 03.19  1.0463 2.0210 157.0 22.0  .45  97
2018 06 21 01  16 35 50.154   -10 54 52.98  1.0464 2.0209 156.9 22.0  .46  97
2018 06 21 02  16 35 46.895   -10 53 42.80  1.0466 2.0208 156.8 22.0  .47  98
2018 06 21 03  16 35 43.639   -10 52 32.66  1.0467 2.0208 156.8 22.0  .48  98
2018 06 21 04  16 35 40.386   -10 51 22.56  1.0468 2.0207 156.7 22.0  .49  99
2018 06 21 05  16 35 37.137   -10 50 12.49  1.0470 2.0206 156.7 22.0  .50  99
2018 06 21 06  16 35 33.890   -10 49 02.45  1.0471 2.0205 156.6 22.0  .51  99
2018 06 21 07  16 35 30.647   -10 47 52.45  1.0472 2.0205 156.6 22.1  .52 100
2018 06 21 08  16 35 27.406   -10 46 42.48  1.0474 2.0204 156.5 22.1  .53 100
2018 06 21 09  16 35 24.169   -10 45 32.55  1.0475 2.0203 156.4 22.1  .55 100
2018 06 21 10  16 35 20.935   -10 44 22.66  1.0476 2.0202 156.4 22.1  .56 100
2018 06 21 11  16 35 17.705   -10 43 12.80  1.0478 2.0202 156.3 22.1  .57 101
2018 06 21 12  16 35 14.477   -10 42 02.98  1.0479 2.0201 156.3 22.1  .58 101
2018 06 21 13  16 35 11.253   -10 40 53.19  1.0480 2.0200 156.2 22.1  .59 101
2018 06 21 14  16 35 08.032   -10 39 43.44  1.0482 2.0199 156.2 22.1  .60 102
2018 06 21 15  16 35 04.814   -10 38 33.72  1.0483 2.0199 156.1 22.1  .62 102
2018 06 21 16  16 35 01.599   -10 37 24.05  1.0484 2.0198 156.1 22.1  .63 102
2018 06 21 17  16 34 58.387   -10 36 14.40  1.0486 2.0197 156.0 22.1  .64 102
2018 06 21 18  16 34 55.179   -10 35 04.80  1.0487 2.0196 155.9 22.1  .65 103
2018 06 21 19  16 34 51.974   -10 33 55.23  1.0489 2.0196 155.9 22.1  .67 103
2018 06 21 20  16 34 48.772   -10 32 45.69  1.0490 2.0195 155.8 22.1  .68 103
2018 06 21 21  16 34 45.573   -10 31 36.20  1.0491 2.0194 155.8 22.1  .69 103
2018 06 21 22  16 34 42.378   -10 30 26.74  1.0493 2.0193 155.7 22.1  .71 104
2018 06 21 23  16 34 39.185   -10 29 17.31  1.0494 2.0193 155.7 22.1  .72 104
2018 06 22 00  16 34 35.996   -10 28 07.93  1.0496 2.0192 155.6 22.1  .73 104
2018 06 22 01  16 34 32.811   -10 26 58.58  1.0497 2.0191 155.5 22.1  .75 104
2018 06 22 02  16 34 29.628   -10 25 49.27  1.0499 2.0190 155.5 22.1  .76 104
2018 06 22 03  16 34 26.449   -10 24 39.99  1.0500 2.0190 155.4 22.1  .77 105
2018 06 22 04  16 34 23.273   -10 23 30.75  1.0501 2.0189 155.4 22.1  .79 105
2018 06 22 05  16 34 20.100   -10 22 21.55  1.0503 2.0188 155.3 22.1  .80 105
2018 06 22 06  16 34 16.931   -10 21 12.39  1.0504 2.0187 155.3 22.1  .82 105
2018 06 22 07  16 34 13.764   -10 20 03.26  1.0506 2.0187 155.2 22.1  .83 105
2018 06 22 08  16 34 10.602   -10 18 54.17  1.0507 2.0186 155.1 22.1  .84 106
2018 06 22 09  16 34 07.442   -10 17 45.12  1.0509 2.0185 155.1 22.1  .86 106
2018 06 22 10  16 34 04.286   -10 16 36.11  1.0510 2.0184 155.0 22.1  .87 106
2018 06 22 11  16 34 01.133   -10 15 27.14  1.0512 2.0184 155.0 22.1  .89 106
2018 06 22 12  16 33 57.983   -10 14 18.20  1.0513 2.0183 154.9 22.1  .90 106
2018 06 22 13  16 33 54.836   -10 13 09.30  1.0515 2.0182 154.9 22.1  .92 106
2018 06 22 14  16 33 51.693   -10 12 00.44  1.0516 2.0181 154.8 22.1  .93 107
2018 06 22 15  16 33 48.553   -10 10 51.62  1.0518 2.0181 154.8 22.1  .95 107
2018 06 22 16  16 33 45.417   -10 09 42.83  1.0519 2.0180 154.7 22.1  .97 107
2018 06 22 17  16 33 42.284   -10 08 34.08  1.0521 2.0179 154.6 22.1  .98 107
2018 06 22 18  16 33 39.154   -10 07 25.38  1.0522 2.0178 154.6 22.1  1.0 107